Overview Statistics Trail Chart Weather Telemetry Raw packets
 

This is the latest recevied weather packets stored in our database for station/object KJ6HT. If no packets are shown the sender has not sent any weather packets the latest 10 day(s).

<< 7 8 9 10 11 12 13 >>
Time Temp. Humidity Pressure Rain* Wind** Luminosity Snow
1788493556 21.11° C 72% 1010.3 hPa 0 mm - - -
1788492654 21.67° C 71% 1010.1 hPa 0 mm - - -
1788491761 21.67° C 69% 1009.8 hPa 0 mm - - -
1788490854 22.22° C 67% 1009.7 hPa 0 mm - - -
1788489959 22.78° C 65% 1009.5 hPa 0 mm - - -
1788489053 22.78° C 64% 1009.4 hPa 0 mm - - -
1788488153 23.33° C 63% 1009.3 hPa 0 mm - - -
1788487255 23.33° C 62% 1009.4 hPa 0 mm - - -
1788486376 23.89° C 61% 1009.4 hPa 0 mm - - -
1788485465 24.44° C 59% 1009.4 hPa 0 mm - - -
1788484550 25° C 57% 1009.4 hPa 0 mm - - -
1788483655 26.11° C 55% 1009.2 hPa 0 mm - - -
1788482749 26.11° C 55% 1009.3 hPa 0 mm - - -
1788481850 26.67° C 54% 1009.3 hPa 0 mm - - -
1788480948 27.22° C 52% 1009.3 hPa 0 mm - - -
1788480049 27.22° C 52% 1009.3 hPa 0 mm - - -
1788479147 27.78° C 51% 1009.4 hPa 0 mm - - -
1788478245 28.33° C 50% 1009.4 hPa 0 mm - - -
1788477343 28.33° C 50% 1009.5 hPa 0 mm - - -
1788476442 28.89° C 49% 1009.6 hPa 0 mm - - -
1788475541 29.44° C 47% 1009.7 hPa 0 mm - - -
1788474642 29.44° C 46% 1009.8 hPa 0 mm - - -
1788473740 29.44° C 45% 1009.9 hPa 0 mm - - -
1788472837 30.56° C 43% 1010.1 hPa 0 mm - - -
1788471940 29.44° C 45% 1010.2 hPa 0 mm - - -

* Rain latest hour (hover to see other rain measurements)
** Current wind speed in m/s (hover to see current wind gust speed)